FW5176 Weather Reports


Display with metric or nautical units.
time (UTC)temp
F
wind
direction
speed
MPH
gust
MPH
rain 1hr
in
rain 24hr
in
rain mn
in
humidity
%
barometer
mb
20260504041555 40 359 0.0 1.0 0.00 0.00 0.00 70 1014.9
20260504040051 40 359 0.0 0.0 0.00 0.00 0.00 69 1015.0
20260504034607 40 359 0.0 0.0 0.00 0.00 0.00 67 1014.8
20260504033050 41 359 0.0 0.0 0.00 0.00 0.00 66 1014.8
20260504031551 42 359 0.0 1.0 0.00 0.00 0.00 65 1014.9
20260504030050 43 75 0.0 4.0 0.00 0.00 0.00 63 1014.9
20260504024551 43 281 0.0 1.0 0.00 0.00 0.00 62 1015.0
20260504023051 43 339 0.0 2.0 0.00 0.00 0.00 62 1015.0
20260504021553 43 346 0.0 0.0 0.00 0.00 0.00 62 1015.1
20260504020050 43 346 0.0 0.0 0.00 0.00 0.00 62 1015.0
20260504014603 44 345 0.0 0.0 0.00 0.00 0.00 59 1015.0
20260504013053 45 346 0.0 1.0 0.00 0.00 0.00 58 1014.8
20260504011558 46 345 0.0 1.0 0.00 0.00 0.00 54 1014.8
20260504010057 46 349 0.0 3.0 0.00 0.00 0.00 54 1014.8
20260504004546 47 359 0.0 1.0 0.00 0.00 0.00 52 1014.7
20260504003051 47 359 0.0 2.0 0.00 0.00 0.00 52 1014.6
20260504001545 48 359 0.0 2.0 0.00 0.00 0.00 50 1014.6
20260504000047 48 359 1.0 5.0 0.00 0.00 0.00 49 1014.5
20260503234551 49 359 0.0 2.0 0.00 0.00 0.00 49 1014.4
20260503233048 50 359 0.0 2.0 0.00 0.00 0.00 47 1014.4
20260503231548 50 359 0.0 3.0 0.00 0.00 0.00 46 1014.2
20260503230048 50 359 0.0 7.0 0.00 0.00 0.00 47 1014.2
20260503224542 50 314 0.0 3.0 0.00 0.00 0.00 47 1014.4
20260503223042 51 76 1.0 6.0 0.00 0.00 0.00 45 1014.4
20260503221541 51 125 0.0 5.0 0.00 0.00 0.00 45 1014.4
20260503220048 51 180 0.0 8.0 0.00 0.00 0.00 45 1014.4
20260503214542 51 176 1.0 7.0 0.00 0.00 0.00 44 1014.3
20260503213045 51 246 1.0 9.0 0.00 0.00 0.00 44 1014.1
20260503211540 51 158 1.0 9.0 0.00 0.00 0.00 43 1014.3
20260503210040 51 269 1.0 12.0 0.00 0.00 0.00 43 1014.2
20260503204547 51 231 0.0 5.0 0.00 0.00 0.00 44 1014.4
20260503203052 51 272 0.0 6.0 0.00 0.00 0.00 46 1014.2
20260503201545 52 275 0.0 4.0 0.00 0.00 0.00 45 1014.3
20260503200048 51 285 1.0 5.0 0.00 0.00 0.00 45 1014.4
20260503194542 50 249 1.0 8.0 0.00 0.00 0.00 46 1014.7
20260503193046 50 228 2.0 8.0 0.00 0.00 0.00 46 1015.1
20260503191538 50 266 0.0 10.0 0.00 0.00 0.00 46 1015.1
20260503190036 51 275 1.0 7.0 0.00 0.00 0.00 45 1015.2
20260503184537 51 266 0.0 9.0 0.00 0.00 0.00 44 1015.1
20260503183051 51 262 2.0 9.0 0.00 0.00 0.00 44 1015.1
20260503181532 50 314 3.0 10.0 0.00 0.00 0.00 44 1015.4
20260503180033 50 274 1.0 6.0 0.00 0.00 0.00 45 1015.4
20260503174532 51 282 1.0 9.0 0.00 0.00 0.00 43 1015.4
20260503173031 51 303 3.0 9.0 0.00 0.00 0.00 42 1015.5
20260503171528 50 264 1.0 7.0 0.00 0.00 0.00 43 1015.7
20260503081529 31 359 0.0 2.0 0.00 0.00 0.00 84 1015.8
20260503071520 31 359 0.0 3.0 0.00 0.00 0.00 83 1015.7
20260503053013 31 359 0.0 2.0 0.00 0.00 0.00 85 1016.0
20260503051507 32 359 0.0 1.0 0.00 0.00 0.00 85 1016.2
20260503050020 32 359 0.0 0.0 0.00 0.00 0.00 84 1016.4
20260503043102 33 359 0.0 0.0 0.00 0.00 0.00 83 1016.4